Location: Владивосток
(43.1151°N, 131.8856°E)
Time: 03:45:49
(UTC+10:00)

CZ-6A DEB - Pass Details

Date: 16 December 2025
Orbit: 721 x 816 km, 98.7° (Epoch: 12 January)

Event Time Altitude Azimuth Distance (km) Brightness Sun altitude
Exits shadow 20:00:32 14° 360° (N) 2,044 ? -25.0°
Drops below altitude 10° 20:01:11 10° 358° (N) 2,288 ? -25.1°
Sets 20:03:31 0° 352° (N) 3,203 ? -25.5°
